User: anonymous   Login
Location: Unspecified
(0.0000°N, 0.0000°E)
Time: 12:25:40
(UTC+02:00)
Language:

Delta 2 Rocket - Orbit

View from above orbital plane
View from above orbital plane
View from above satellite
View from above satellite

Ground track
Ground track

The orbit data is extracted from the following two-line orbital elements,

1 20453U 90008B   18113.22150350 +.00002097 +00000-0 +11955-3 0  9995
2 20453 035.6252 207.4495 0286591 228.9164 128.6467 14.84098333494276
Epoch (UTC): 23 April 2018 05:18:57
Eccentricity: 0.0286591
inclination: 35.6252°
perigee height: 416 km
apogee height: 817 km
right ascension of ascending node: 207.4495°
argument of perigee: 228.9164°
revolutions per day: 14.84098333
mean anomaly at epoch: 128.6467°
orbit number at epoch: 49427

The dashed part of the orbit path shows where the satellite is in the earth's shadow,  

DLR